Location: Rheem
(37.9758°N, 122.3544°W)
Time: 04:59:45
(UTC+00:00)

Daily predictions for brighter satellites

Satellite Brightness Start Highest point End
(mag) Time Altitude Azimuth Time Altitude Azimuth Time Altitude Azimuth
Cosmos 1862 4.2 01:18:35 10° NNE 01:22:03 28° ENE 01:25:32 10° SE
ASTEX 1 4.5 01:19:36 10° N 01:24:25 50° W 01:29:11 10° SSW
SeaSat 1 3.7 01:22:18 10° E 01:25:47 20° NE 01:29:17 10° N
Cosmos 1151 Rocket 4.0 01:23:37 10° SSE 01:27:19 28° E 01:31:03 10° NNE
Cosmos 1633 Rocket 3.7 01:23:54 10° NNE 01:27:55 33° ENE 01:31:54 10° SE
Sich 1 3.0 01:28:52 10° N 01:33:14 66° E 01:37:35 10° SSE
Okean O Rocket 3.6 01:29:29 10° SSW 01:33:29 34° W 01:37:29 10° NNW
Cosmos 1633 2.6 01:33:23 10° N 01:36:59 55° E 01:40:31 10° SSE
Cosmos 1328 Rocket 4.0 01:33:52 10° SSE 01:38:00 40° E 01:42:08 10° NNE
SL-8 R/B 4.0 01:33:37 10° SW 01:38:18 53° SE 01:42:36 12° ENE
SMAP 3.0 01:36:06 10° SSE 01:40:44 84° ENE 01:45:25 10° N
Envisat 3.4 01:37:15 10° SE 01:41:57 40° ENE 01:46:42 10° N
Cosmos 1515 Rocket 4.5 01:39:10 10° SSE 01:42:53 27° E 01:46:35 10° NNE
Cosmos 1666 Rocket 3.5 01:39:09 10° N 01:43:28 62° E 01:47:44 10° SSE
COSMO-SKYMED 1 3.1 01:42:58 10° NNE 01:47:00 36° E 01:51:00 10° SSE
Cosmos 2034 Rocket 4.2 01:41:07 10° N 01:47:18 50° E 01:53:26 10° SSE
CORIOLIS 4.2 01:47:25 10° SSE 01:52:50 89° ENE 01:58:17 10° NNW
H-2A R/B 2.9 01:49:45 10° S 01:53:35 76° W 01:57:24 10° NNW
GPS 2-04 Rocket1 2.9 01:52:20 10° WSW 01:55:41 47° S 01:57:54 18° ESE
AQUARIUS 4.4 01:51:41 10° S 01:56:09 72° WSW 02:00:39 10° NNW
PSLV R/B 3.3 01:54:34 10° W 01:57:01 48° SSW 01:58:54 15° SE
ATLAS 5 CENTAUR R/B 4.0 01:56:31 10° S 01:58:30 12° SSE 02:01:19 10° SE
ISS -1.6 01:57:56 10° SSE 01:59:33 13° SE 01:59:50 13° ESE
Cosmos 158 Rocket 4.0 01:54:40 10° S 01:59:56 65° ESE 02:05:05 10° NNE
Hubble Space Telescope 3.1 02:01:03 10° S 02:02:57 13° SSE 02:04:51 10° SE
COBE Rocket 4.1 01:59:03 10° N 02:03:45 67° WNW 02:08:20 10° SSW
SL-16 R/B 3.2 02:01:18 10° SSE 02:05:50 25° ESE 02:07:48 21° ENE
Cosmos 1980 Rocket 2.2 02:00:23 10° SSW 02:06:03 89° WNW 02:11:47 10° NNE
YAOGAN 1 3.3 02:03:18 10° SE 02:07:05 31° ENE 02:10:54 10° N
Cosmos 1371 Rocket 4.0 02:05:01 10° N 02:10:07 55° ENE 02:15:10 10° SSE
NOAA 12 4.2 02:05:24 10° SSE 02:10:44 85° WSW 02:16:06 10° NNW
Tsikada Rocket 4.0 02:04:38 10° S 02:10:54 64° E 02:17:14 10° NNE
SKYMED 3 4.5 02:06:48 10° NNE 02:11:10 71° ESE 02:15:28 10° S
BREEZE-M R/B 3.7 02:05:19 10° SSW 02:11:13 39° SE 02:12:47 27° E
Geosat 4.1 02:06:37 10° NNE 02:11:40 79° WNW 02:16:40 10° SSW
YAOGAN 6 2.6 02:08:38 10° SSE 02:12:00 48° ENE 02:15:23 10° N
Cosmos 2322 Rocket 3.2 02:08:25 10° SSE 02:12:49 24° ESE 02:13:46 23° E
Cosmos 1470 Rocket 3.6 02:10:24 10° N 02:14:51 60° E 02:19:15 10° SSE
Cosmos 2297 Rocket 4.2 02:11:34 10° NW 02:16:27 31° WSW 02:21:20 10° SSW
Cosmos 2227 Rocket 4.0 02:12:10 10° NW 02:17:11 33° WSW 02:22:10 10° SSW
GEOS 3 Rocket 4.2 02:15:11 10° NNE 02:20:19 57° NW 02:25:28 10° SW
CZ-3 Stage 3 4.4 02:23:45 10° WSW 02:25:09 11° SW 02:26:16 10° SW
GENESIS II 4.2 02:22:20 10° SSW 02:26:21 84° WNW 02:28:20 29° NNE
DELTA 2 R/B (1) 3.7 02:25:44 10° WSW 02:31:14 62° SSE 02:33:26 36° E
Cosmos 2263 Rocket 2.7 02:27:40 10° N 02:32:45 35° ENE 02:33:02 35° ENE
SKYMED 2 4.1 02:30:53 10° N 02:35:10 60° WNW 02:39:26 10° SSW
CZ-4 R/B 1.3 02:31:23 10° SSE 02:35:32 88° ENE 02:39:37 10° NNW
COSMOS 2455 3.3 02:40:28 10° S 02:45:56 39° ESE 02:45:56 39° ESE
ATLAS 2AS CENTAUR R/B 4.1 02:40:07 10° SSE 02:44:26 23° SE 02:44:26 23° SE
Cosmos 1933 4.2 02:48:38 10° SSW 02:52:35 49° W 02:55:55 14° N
Cosmos 1606 3.2 02:49:50 10° SSW 02:53:32 56° W 02:54:50 35° NNW
Cosmos 2056 Rocket 4.0 02:56:29 10° NNW 03:01:32 58° WSW 03:06:38 10° S
SeaSat 1 3.0 02:58:04 10° S 03:02:54 56° WSW 03:07:45 10° NW
Cosmos 2228 Rocket 4.2 03:07:27 10° SSW 03:11:42 43° W 03:14:33 19° NNW
NOAA 11 4.3 03:15:18 10° S 03:20:40 70° WSW 03:26:07 10° NNW
Cosmos 2227 4.5 03:15:05 10° NNW 03:20:49 67° WSW 03:23:18 34° S
USA 215 4.4 03:30:07 28° N 03:30:07 28° N 03:34:16 10° NNW
ISS -0.4 03:32:37 10° WSW 03:32:47 11° WSW 03:32:47 11° WSW
Hubble Space Telescope 3.7 03:40:21 10° SW 03:40:42 12° SW 03:40:42 12° SW
Cosmos 2360 Rocket 4.2 03:38:34 10° SSW 03:39:55 18° SSW 03:39:55 18° SSW
SL-16 R/B 3.2 03:44:19 10° SW 03:49:39 41° WNW 03:49:44 41° WNW
Cosmos 2322 Rocket 3.4 03:51:17 10° SW 03:55:39 39° W 03:55:39 39° W
Cosmos 2263 Rocket 4.1 04:11:47 10° NW 04:14:49 25° WNW 04:14:49 25° WNW
ATLAS 2AS CENTAUR R/B 4.3 04:28:27 10° SW 04:31:57 30° SW 04:31:57 30° SW
COSMOS 2455 4.3 11:47:36 30° NE 11:48:10 30° NE 11:53:23 10° ESE
CZ-3B R/B 3.8 11:50:14 26° SSE 11:50:14 26° SSE 11:54:40 10° ESE
